Regional Weather Roundup
Issued by NWS

Home | Current Version | Previous Version | Graphics & Text | Print | Product List | Glossary On
Versions: 1 2 3 4 5 6 7 8 9 10 11 12 13 14 15 16 17 18 19 20 21 22 23 24 25 26 27
000
ASUS45 KBOU 271607
RWRCO

WEATHER ROUNDUP FOR COLORADO
NATIONAL WEATHER SERVICE DENVER/BOULDER CO
1000 AM MDT TUE JUN 27 2017

NOTE: "FAIR" INDICATES FEW OR NO CLOUDS BELOW 12000 FEET WITH NO
SIGNIFICANT WEATHER AND/OR OBSTRUCTIONS TO VISIBILITY.

COZ001>005-013-030-031-271700-
...NORTHWEST COLORADO...

CITY           SKY/WX    TMP DP  RH WIND       PRES   REMARKS
CRAIG          FAIR      77  36  22 CALM      30.04F
HAYDEN         FAIR      70  36  28 E6        30.06F
MEEKER         FAIR      80  32  17 S18G25    30.04F
RABBIT EARS PA FAIR      61  32  33 SW7G20    30.36F
STEAMBOAT SPGS FAIR      68  42  39 NW3       30.08F
WALDEN         FAIR      70  36  28 S12       30.17F
$$

COZ006>008-011-271700-
...WEST CENTRAL VALLEYS...

CITY           SKY/WX    TMP DP  RH WIND       PRES   REMARKS
GRAND JUNCTION FAIR      86  34  15 SE12      29.96F
MONTROSE       FAIR      85  29  13 SW10      30.07F
EAGLE          NOT AVBL
RIFLE          FAIR      74  30  19 VRB3      30.03F
DELTA          FAIR      86  32  14 CALM      30.04F
NUCLA          NOT AVBL
$$

COZ017>023-064>068-271700-
...SOUTHWEST COLORADO...

CITY           SKY/WX    TMP DP  RH WIND       PRES   REMARKS
DURANGO        FAIR      72  40  31 E6        30.22F
CORTEZ         FAIR      81  38  21 S13       30.14F
PAGOSA SPRINGS FAIR      69  36  29 CALM      30.31F
TELLURIDE      FAIR      71  22  16 SW15G21   30.35F
WOLF CREEK PAS FAIR      50  36  57 SW13G21   30.62S
$$

COZ009-010-012-014-032>034-037-058>063-271700-
...CENTRAL COLORADO...

CITY           SKY/WX    TMP DP  RH WIND       PRES   REMARKS
ASPEN          FAIR      76  26  15 S10G17    30.18F
BUENA VISTA    FAIR      66  34  30 NE3       30.25F
COPPER MTN     FAIR      59  23  25 SW12G18   30.51F
BERTHOUD PASS  FAIR      50  36  57 W20G35    30.52F
COTTONWOOD PAS FAIR      64  34  32 E6        30.37F
GUNNISON       FAIR      66  38  35 N6        30.25F
KREMMLING      NOT AVBL
LEADVILLE      FAIR      61  30  31 S7        30.35F
SALIDA         FAIR      74  37  25 S10G22    30.27F
SUNLIGHT       FAIR      59  32  36 SW10G23   30.43F
WILKERSON PASS HAZE      57  30  35 SW13G21   30.49F VSB 1/2
$$

COZ069>075-271700-
...SAN LUIS VALLEY/SANGRE DE CRISTO MOUNTAINS...

CITY           SKY/WX    TMP DP  RH WIND       PRES   REMARKS
ALAMOSA        FAIR      65  44  46 S6        30.27F
DEL NORTE      FAIR      63  40  43 E3        30.31F
LA VETA PASS   FAIR      61  41  48 MISG      30.53F
SAGUACHE       FAIR      63  41  45 SE5       30.31F
$$

COZ035-036-038>040-271700-
...NORTHERN COLORADO FRONT RANGE...

CITY           SKY/WX    TMP DP  RH WIND       PRES   REMARKS
DENVER INTL AP FAIR      76  50  40 CALM      29.95F
DMNS CITY PARK   N/A     82  50  33 NE5G12    29.93F
AURORA         MOSUNNY   84  40  20 SW12      29.97F
FRONT RANGE AP MOSUNNY   81  48  32 NW7       29.96F
ERIE MUNI ARPT FAIR      72  54  53 CALM      29.94F
BOULDER MUN AP FAIR      68  54  60 CALM      29.95F
CENTENNIAL     FAIR      84  37  18 SW17G24   29.98F
BROOMFIELD     FAIR      72  54  53 CALM      29.97F
FORT COLLINS   FAIR      73  54  51 SE5       29.93F
LONGMONT       FAIR      75  55  49 S5        29.95F
$$

COZ041-046-047-076>085-087-088-271700-
...PIKES PEAK/PALMER DIVIDE AND SOUTHERN FOOTHILLS...

CITY           SKY/WX    TMP DP  RH WIND       PRES   REMARKS
COLO. SPRINGS  FAIR      74  46  36 SE3       30.06F
A. F. ACADEMY  FAIR      75  45  34 E7        30.06F
SCHRIEVER AFB  FAIR      76  42  30 SW14G20   30.07F
CHEYENNE MTN   PTSUNNY   71  48  44 N3        30.06F
ELLICOTT       FAIR     N/A N/A N/A W12       30.05F
FALCON           N/A     80  33  18 SW13      30.11F
FORT CARSON    FAIR      75  46  34 E3        30.03F
LIMON          FAIR      79  48  33 S13G20    29.99F
MONUMENT HILL  FAIR      81  34  18 W22       30.12F
CANON CITY     SUNNY     86  39  19 W13       30.01F
WALSENBURG     FAIR      84  43  23 W15G23    30.08F
TRINIDAD       FAIR      83  42  23 W12       30.07F
$$

COZ042>045-048>051-090-091-271700-
...NORTHEAST COLORADO...

CITY           SKY/WX    TMP DP  RH WIND       PRES   REMARKS
GREELEY ARPT   FAIR      72  56  57 CALM      29.92F
AKRON          FAIR      81  50  33 S12       29.92F
BURLINGTON     FAIR      80  56  43 S16       29.94F
WRAY           FAIR      70  59  68 SE10      29.93F
YUMA           FAIR      73  52  46 S10       29.92F
STERLING       FAIR      79  59  50 S12       29.88F
HOLYOKE        NOT AVBL
FORT MORGAN    FAIR      78  46  32 S7        29.91F
$$

COZ086-089-092>099-271700-
...SOUTHEAST COLORADO...

CITY           SKY/WX    TMP DP  RH WIND       PRES   REMARKS
PUEBLO         FAIR      75  47  36 VRB5      29.98F
LA JUNTA       FAIR      82  52  35 VRB3      29.96F
LAMAR          FAIR      85  55  35 S12       29.93F
SPRINGFIELD      N/A     81  55  40 S22G29    30.01F
$$




USA.gov is the U.S. government's official web portal to all federal, state and local government web resources and services.